owner,sensor,date,latitude,longitude,sea_surface_height_above_sea_level,qcFlag 
COMPS,ioos:station:USF.COMPS:SHP:1,2016-04-01T00:00:00Z,30.0600,-84.2910,0.526,1111122 
COMPS,ioos:station:USF.COMPS:SHP:1,2016-04-01T00:06:00Z,30.0600,-84.2910,0.528,1111122 
COMPS,ioos:station:USF.COMPS:SHP:1,2016-04-01T00:12:00Z,30.0600,-84.2910,0.525,1111122 
COMPS,ioos:station:USF.COMPS:SHP:1,2016-04-01T00:18:00Z,30.0600,-84.2910,0.525,1111122 
COMPS,ioos:station:USF.COMPS:SHP:1,2016-04-01T00:24:00Z,30.0600,-84.2910,0.529,1111122 
COMPS,ioos:station:USF.COMPS:SHP:1,2016-04-01T00:30:00Z,30.0600,-84.2910,0.527,1111122 
COMPS,ioos:station:USF.COMPS:SHP:1,2016-04-01T00:36:00Z,30.0600,-84.2910,0.517,1111122 
COMPS,ioos:station:USF.COMPS:SHP:1,2016-04-01T00:42:00Z,30.0600,-84.2910,0.517,1111122 
COMPS,ioos:station:USF.COMPS:SHP:1,2016-04-01T00:48:00Z,30.0600,-84.2910,0.519,1111122 
COMPS,ioos:station:USF.COMPS:SHP:1,2016-04-01T00:54:00Z,30.0600,-84.2910,0.518,1111122 
COMPS,ioos:station:USF.COMPS:SHP:1,2016-04-01T01:00:00Z,30.0600,-84.2910,0.508,1111122 
COMPS,ioos:station:USF.COMPS:SHP:1,2016-04-01T01:06:00Z,30.0600,-84.2910,0.509,1111122 
COMPS,ioos:station:USF.COMPS:SHP:1,2016-04-01T01:12:00Z,30.0600,-84.2910,0.509,1111122 
COMPS,ioos:station:USF.COMPS:SHP:1,2016-04-01T01:18:00Z,30.0600,-84.2910,0.498,1111122 
COMPS,ioos:station:USF.COMPS:SHP:1,2016-04-01T01:24:00Z,30.0600,-84.2910,0.486,1111122 
COMPS,ioos:station:USF.COMPS:SHP:1,2016-04-01T01:30:00Z,30.0600,-84.2910,0.483,1111122 
COMPS,ioos:station:USF.COMPS:SHP:1,2016-04-01T01:36:00Z,30.0600,-84.2910,0.485,1111122 
COMPS,ioos:station:USF.COMPS:SHP:1,2016-04-01T01:42:00Z,30.0600,-84.2910,0.488,1111122 
COMPS,ioos:station:USF.COMPS:SHP:1,2016-04-01T01:48:00Z,30.0600,-84.2910,0.486,1111122 
COMPS,ioos:station:USF.COMPS:SHP:1,2016-04-01T01:54:00Z,30.0600,-84.2910,0.47,1111122 
COMPS,ioos:station:USF.COMPS:SHP:1,2016-04-01T02:00:00Z,30.0600,-84.2910,0.449,1111122 
COMPS,ioos:station:USF.COMPS:SHP:1,2016-04-01T02:06:00Z,30.0600,-84.2910,0.445,1111122 
COMPS,ioos:station:USF.COMPS:SHP:1,2016-04-01T02:12:00Z,30.0600,-84.2910,0.444,1111122 
COMPS,ioos:station:USF.COMPS:SHP:1,2016-04-01T02:18:00Z,30.0600,-84.2910,0.431,1111122 
COMPS,ioos:station:USF.COMPS:SHP:1,2016-04-01T02:24:00Z,30.0600,-84.2910,0.424,1111122 
COMPS,ioos:station:USF.COMPS:SHP:1,2016-04-01T02:30:00Z,30.0600,-84.2910,0.422,1111122 
COMPS,ioos:station:USF.COMPS:SHP:1,2016-04-01T02:36:00Z,30.0600,-84.2910,0.392,1111122 
COMPS,ioos:station:USF.COMPS:SHP:1,2016-04-01T02:42:00Z,30.0600,-84.2910,0.378,1111122 
COMPS,ioos:station:USF.COMPS:SHP:1,2016-04-01T02:48:00Z,30.0600,-84.2910,0.383,1111122 
COMPS,ioos:station:USF.COMPS:SHP:1,2016-04-01T02:54:00Z,30.0600,-84.2910,0.373,1111122 
COMPS,ioos:station:USF.COMPS:SHP:1,2016-04-01T03:00:00Z,30.0600,-84.2910,0.356,1111122 
COMPS,ioos:station:USF.COMPS:SHP:1,2016-04-01T03:06:00Z,30.0600,-84.2910,0.354,1111122 
COMPS,ioos:station:USF.COMPS:SHP:1,2016-04-01T03:12:00Z,30.0600,-84.2910,0.342,1111122 
COMPS,ioos:station:USF.COMPS:SHP:1,2016-04-01T03:18:00Z,30.0600,-84.2910,0.321,1111122 
COMPS,ioos:station:USF.COMPS:SHP:1,2016-04-01T03:24:00Z,30.0600,-84.2910,0.317,1111122 
COMPS,ioos:station:USF.COMPS:SHP:1,2016-04-01T03:30:00Z,30.0600,-84.2910,0.308,1111122 
COMPS,ioos:station:USF.COMPS:SHP:1,2016-04-01T03:36:00Z,30.0600,-84.2910,0.291,1111122 
COMPS,ioos:station:USF.COMPS:SHP:1,2016-04-01T03:42:00Z,30.0600,-84.2910,0.289,1111122 
COMPS,ioos:station:USF.COMPS:SHP:1,2016-04-01T03:48:00Z,30.0600,-84.2910,0.291,1111122 
COMPS,ioos:station:USF.COMPS:SHP:1,2016-04-01T03:54:00Z,30.0600,-84.2910,0.272,1111122 
COMPS,ioos:station:USF.COMPS:SHP:1,2016-04-01T04:00:00Z,30.0600,-84.2910,0.256,1111122 
COMPS,ioos:station:USF.COMPS:SHP:1,2016-04-01T04:06:00Z,30.0600,-84.2910,0.254,1111122 
COMPS,ioos:station:USF.COMPS:SHP:1,2016-04-01T04:12:00Z,30.0600,-84.2910,0.239,1111122 
COMPS,ioos:station:USF.COMPS:SHP:1,2016-04-01T04:18:00Z,30.0600,-84.2910,0.22,1111122 
COMPS,ioos:station:USF.COMPS:SHP:1,2016-04-01T04:24:00Z,30.0600,-84.2910,0.213,1111122 
COMPS,ioos:station:USF.COMPS:SHP:1,2016-04-01T04:30:00Z,30.0600,-84.2910,0.201,1111122 
COMPS,ioos:station:USF.COMPS:SHP:1,2016-04-01T04:36:00Z,30.0600,-84.2910,0.186,1111122 
COMPS,ioos:station:USF.COMPS:SHP:1,2016-04-01T04:42:00Z,30.0600,-84.2910,0.171,1111122 
COMPS,ioos:station:USF.COMPS:SHP:1,2016-04-01T04:48:00Z,30.0600,-84.2910,0.161,1111122 
COMPS,ioos:station:USF.COMPS:SHP:1,2016-04-01T04:54:00Z,30.0600,-84.2910,0.141,1111122 
COMPS,ioos:station:USF.COMPS:SHP:1,2016-04-01T05:00:00Z,30.0600,-84.2910,0.117,1111122 
COMPS,ioos:station:USF.COMPS:SHP:1,2016-04-01T05:06:00Z,30.0600,-84.2910,0.107,1111122 
COMPS,ioos:station:USF.COMPS:SHP:1,2016-04-01T05:12:00Z,30.0600,-84.2910,0.1,1111122 
COMPS,ioos:station:USF.COMPS:SHP:1,2016-04-01T05:18:00Z,30.0600,-84.2910,0.086,1111122 
COMPS,ioos:station:USF.COMPS:SHP:1,2016-04-01T05:24:00Z,30.0600,-84.2910,0.069,1111122 
COMPS,ioos:station:USF.COMPS:SHP:1,2016-04-01T05:30:00Z,30.0600,-84.2910,0.055,1111122 
COMPS,ioos:station:USF.COMPS:SHP:1,2016-04-01T05:36:00Z,30.0600,-84.2910,0.038,1111122 
COMPS,ioos:station:USF.COMPS:SHP:1,2016-04-01T05:42:00Z,30.0600,-84.2910,0.018,1111122 
COMPS,ioos:station:USF.COMPS:SHP:1,2016-04-01T05:48:00Z,30.0600,-84.2910,0.008,1111122 
COMPS,ioos:station:USF.COMPS:SHP:1,2016-04-01T05:54:00Z,30.0600,-84.2910,0.002,1111122 
COMPS,ioos:station:USF.COMPS:SHP:1,2016-04-01T06:00:00Z,30.0600,-84.2910,-0.006,1111122 
COMPS,ioos:station:USF.COMPS:SHP:1,2016-04-01T06:06:00Z,30.0600,-84.2910,-0.021,1111122 
COMPS,ioos:station:USF.COMPS:SHP:1,2016-04-01T06:12:00Z,30.0600,-84.2910,-0.028,1111122 
COMPS,ioos:station:USF.COMPS:SHP:1,2016-04-01T06:18:00Z,30.0600,-84.2910,-0.03,1111122 
COMPS,ioos:station:USF.COMPS:SHP:1,2016-04-01T06:24:00Z,30.0600,-84.2910,-0.037,1111122 
COMPS,ioos:station:USF.COMPS:SHP:1,2016-04-01T06:30:00Z,30.0600,-84.2910,-0.049,1111122 
COMPS,ioos:station:USF.COMPS:SHP:1,2016-04-01T06:36:00Z,30.0600,-84.2910,-0.061,1111122 
COMPS,ioos:station:USF.COMPS:SHP:1,2016-04-01T06:42:00Z,30.0600,-84.2910,-0.076,1111122 
COMPS,ioos:station:USF.COMPS:SHP:1,2016-04-01T06:48:00Z,30.0600,-84.2910,-0.087,1111122 
COMPS,ioos:station:USF.COMPS:SHP:1,2016-04-01T06:54:00Z,30.0600,-84.2910,-0.096,1111122 
COMPS,ioos:station:USF.COMPS:SHP:1,2016-04-01T07:00:00Z,30.0600,-84.2910,-0.106,1111122 
COMPS,ioos:station:USF.COMPS:SHP:1,2016-04-01T07:06:00Z,30.0600,-84.2910,-0.113,1111122 
COMPS,ioos:station:USF.COMPS:SHP:1,2016-04-01T07:12:00Z,30.0600,-84.2910,-0.12,1111122 
COMPS,ioos:station:USF.COMPS:SHP:1,2016-04-01T07:18:00Z,30.0600,-84.2910,-0.128,1111122 
COMPS,ioos:station:USF.COMPS:SHP:1,2016-04-01T07:24:00Z,30.0600,-84.2910,-0.132,1111122 
COMPS,ioos:station:USF.COMPS:SHP:1,2016-04-01T07:30:00Z,30.0600,-84.2910,-0.132,1111122 
COMPS,ioos:station:USF.COMPS:SHP:1,2016-04-01T07:36:00Z,30.0600,-84.2910,-0.135,1111122 
COMPS,ioos:station:USF.COMPS:SHP:1,2016-04-01T07:42:00Z,30.0600,-84.2910,-0.139,1111122 
COMPS,ioos:station:USF.COMPS:SHP:1,2016-04-01T07:48:00Z,30.0600,-84.2910,-0.138,1111122 
COMPS,ioos:station:USF.COMPS:SHP:1,2016-04-01T07:54:00Z,30.0600,-84.2910,-0.145,1111122 
COMPS,ioos:station:USF.COMPS:SHP:1,2016-04-01T08:00:00Z,30.0600,-84.2910,-0.152,1111122 
COMPS,ioos:station:USF.COMPS:SHP:1,2016-04-01T08:06:00Z,30.0600,-84.2910,-0.151,1111122 
COMPS,ioos:station:USF.COMPS:SHP:1,2016-04-01T08:12:00Z,30.0600,-84.2910,-0.146,1111122 
COMPS,ioos:station:USF.COMPS:SHP:1,2016-04-01T08:18:00Z,30.0600,-84.2910,-0.141,1111122 
COMPS,ioos:station:USF.COMPS:SHP:1,2016-04-01T08:24:00Z,30.0600,-84.2910,-0.137,1111122 
COMPS,ioos:station:USF.COMPS:SHP:1,2016-04-01T08:30:00Z,30.0600,-84.2910,-0.134,1111122 
COMPS,ioos:station:USF.COMPS:SHP:1,2016-04-01T08:36:00Z,30.0600,-84.2910,-0.133,1111122 
COMPS,ioos:station:USF.COMPS:SHP:1,2016-04-01T08:42:00Z,30.0600,-84.2910,-0.137,1111122 
COMPS,ioos:station:USF.COMPS:SHP:1,2016-04-01T08:48:00Z,30.0600,-84.2910,-0.136,1111122 
COMPS,ioos:station:USF.COMPS:SHP:1,2016-04-01T08:54:00Z,30.0600,-84.2910,-0.131,1111122 
COMPS,ioos:station:USF.COMPS:SHP:1,2016-04-01T09:00:00Z,30.0600,-84.2910,-0.12,1111122 
COMPS,ioos:station:USF.COMPS:SHP:1,2016-04-01T09:06:00Z,30.0600,-84.2910,-0.108,1111122 
COMPS,ioos:station:USF.COMPS:SHP:1,2016-04-01T09:12:00Z,30.0600,-84.2910,-0.097,1111122 
COMPS,ioos:station:USF.COMPS:SHP:1,2016-04-01T09:18:00Z,30.0600,-84.2910,-0.087,1111122 
COMPS,ioos:station:USF.COMPS:SHP:1,2016-04-01T09:24:00Z,30.0600,-84.2910,-0.073,1111122 
COMPS,ioos:station:USF.COMPS:SHP:1,2016-04-01T09:30:00Z,30.0600,-84.2910,-0.059,1111122 
COMPS,ioos:station:USF.COMPS:SHP:1,2016-04-01T09:36:00Z,30.0600,-84.2910,-0.048,1111122 
COMPS,ioos:station:USF.COMPS:SHP:1,2016-04-01T09:42:00Z,30.0600,-84.2910,-0.04,1111122 
COMPS,ioos:station:USF.COMPS:SHP:1,2016-04-01T09:48:00Z,30.0600,-84.2910,-0.03,1111122 
COMPS,ioos:station:USF.COMPS:SHP:1,2016-04-01T09:54:00Z,30.0600,-84.2910,-0.021,1111122 
COMPS,ioos:station:USF.COMPS:SHP:1,2016-04-01T10:00:00Z,30.0600,-84.2910,-0.011,1111122 
COMPS,ioos:station:USF.COMPS:SHP:1,2016-04-01T10:06:00Z,30.0600,-84.2910,0.003,1111122 
COMPS,ioos:station:USF.COMPS:SHP:1,2016-04-01T10:12:00Z,30.0600,-84.2910,0.018,1111122 
COMPS,ioos:station:USF.COMPS:SHP:1,2016-04-01T10:18:00Z,30.0600,-84.2910,0.035,1111122 
COMPS,ioos:station:USF.COMPS:SHP:1,2016-04-01T10:24:00Z,30.0600,-84.2910,0.055,1111122 
COMPS,ioos:station:USF.COMPS:SHP:1,2016-04-01T10:30:00Z,30.0600,-84.2910,0.073,1111122 
COMPS,ioos:station:USF.COMPS:SHP:1,2016-04-01T10:36:00Z,30.0600,-84.2910,0.086,1111122 
COMPS,ioos:station:USF.COMPS:SHP:1,2016-04-01T10:42:00Z,30.0600,-84.2910,0.095,1111122 
COMPS,ioos:station:USF.COMPS:SHP:1,2016-04-01T10:48:00Z,30.0600,-84.2910,0.103,1111122 
COMPS,ioos:station:USF.COMPS:SHP:1,2016-04-01T10:54:00Z,30.0600,-84.2910,0.119,1111122 
COMPS,ioos:station:USF.COMPS:SHP:1,2016-04-01T11:00:00Z,30.0600,-84.2910,0.138,1111122 
COMPS,ioos:station:USF.COMPS:SHP:1,2016-04-01T11:06:00Z,30.0600,-84.2910,0.153,1111122 
COMPS,ioos:station:USF.COMPS:SHP:1,2016-04-01T11:12:00Z,30.0600,-84.2910,0.166,1111122 
COMPS,ioos:station:USF.COMPS:SHP:1,2016-04-01T11:18:00Z,30.0600,-84.2910,0.177,1111122 
COMPS,ioos:station:USF.COMPS:SHP:1,2016-04-01T11:24:00Z,30.0600,-84.2910,0.184,1111122 
COMPS,ioos:station:USF.COMPS:SHP:1,2016-04-01T11:30:00Z,30.0600,-84.2910,0.193,1111122 
COMPS,ioos:station:USF.COMPS:SHP:1,2016-04-01T11:36:00Z,30.0600,-84.2910,0.209,1111122 
COMPS,ioos:station:USF.COMPS:SHP:1,2016-04-01T11:42:00Z,30.0600,-84.2910,0.224,1111122 
COMPS,ioos:station:USF.COMPS:SHP:1,2016-04-01T11:48:00Z,30.0600,-84.2910,0.238,1111122 
COMPS,ioos:station:USF.COMPS:SHP:1,2016-04-01T11:54:00Z,30.0600,-84.2910,0.251,1111122 
COMPS,ioos:station:USF.COMPS:SHP:1,2016-04-01T12:00:00Z,30.0600,-84.2910,0.261,1111122 
COMPS,ioos:station:USF.COMPS:SHP:1,2016-04-01T12:06:00Z,30.0600,-84.2910,0.27,1111122 
COMPS,ioos:station:USF.COMPS:SHP:1,2016-04-01T12:12:00Z,30.0600,-84.2910,0.283,1111122 
COMPS,ioos:station:USF.COMPS:SHP:1,2016-04-01T12:18:00Z,30.0600,-84.2910,0.298,1111122 
COMPS,ioos:station:USF.COMPS:SHP:1,2016-04-01T12:24:00Z,30.0600,-84.2910,0.311,1111122 
COMPS,ioos:station:USF.COMPS:SHP:1,2016-04-01T12:30:00Z,30.0600,-84.2910,0.324,1111122 
COMPS,ioos:station:USF.COMPS:SHP:1,2016-04-01T12:36:00Z,30.0600,-84.2910,0.337,1111122 
COMPS,ioos:station:USF.COMPS:SHP:1,2016-04-01T12:42:00Z,30.0600,-84.2910,0.345,1111122 
COMPS,ioos:station:USF.COMPS:SHP:1,2016-04-01T12:48:00Z,30.0600,-84.2910,0.354,1111122 
COMPS,ioos:station:USF.COMPS:SHP:1,2016-04-01T12:54:00Z,30.0600,-84.2910,0.369,1111122 
COMPS,ioos:station:USF.COMPS:SHP:1,2016-04-01T13:00:00Z,30.0600,-84.2910,0.384,1111122 
COMPS,ioos:station:USF.COMPS:SHP:1,2016-04-01T13:06:00Z,30.0600,-84.2910,0.395,1111122 
COMPS,ioos:station:USF.COMPS:SHP:1,2016-04-01T13:12:00Z,30.0600,-84.2910,0.399,1111122 
COMPS,ioos:station:USF.COMPS:SHP:1,2016-04-01T13:18:00Z,30.0600,-84.2910,0.402,1111122 
COMPS,ioos:station:USF.COMPS:SHP:1,2016-04-01T13:24:00Z,30.0600,-84.2910,0.406,1111122 
COMPS,ioos:station:USF.COMPS:SHP:1,2016-04-01T13:30:00Z,30.0600,-84.2910,0.412,1111122 
COMPS,ioos:station:USF.COMPS:SHP:1,2016-04-01T13:36:00Z,30.0600,-84.2910,0.42,1111122 
COMPS,ioos:station:USF.COMPS:SHP:1,2016-04-01T13:42:00Z,30.0600,-84.2910,0.427,1111122 
COMPS,ioos:station:USF.COMPS:SHP:1,2016-04-01T13:48:00Z,30.0600,-84.2910,0.431,1111122 
COMPS,ioos:station:USF.COMPS:SHP:1,2016-04-01T13:54:00Z,30.0600,-84.2910,0.434,1111122 
COMPS,ioos:station:USF.COMPS:SHP:1,2016-04-01T14:00:00Z,30.0600,-84.2910,0.438,1111122 
COMPS,ioos:station:USF.COMPS:SHP:1,2016-04-01T14:06:00Z,30.0600,-84.2910,0.445,1111122 
COMPS,ioos:station:USF.COMPS:SHP:1,2016-04-01T14:12:00Z,30.0600,-84.2910,0.452,1111122 
COMPS,ioos:station:USF.COMPS:SHP:1,2016-04-01T14:18:00Z,30.0600,-84.2910,0.457,1111122 
COMPS,ioos:station:USF.COMPS:SHP:1,2016-04-01T14:24:00Z,30.0600,-84.2910,0.463,1111122 
COMPS,ioos:station:USF.COMPS:SHP:1,2016-04-01T14:30:00Z,30.0600,-84.2910,0.467,1111122 
COMPS,ioos:station:USF.COMPS:SHP:1,2016-04-01T14:36:00Z,30.0600,-84.2910,0.468,1111122 
COMPS,ioos:station:USF.COMPS:SHP:1,2016-04-01T14:42:00Z,30.0600,-84.2910,0.478,1111122 
COMPS,ioos:station:USF.COMPS:SHP:1,2016-04-01T14:48:00Z,30.0600,-84.2910,0.483,1111122 
COMPS,ioos:station:USF.COMPS:SHP:1,2016-04-01T14:54:00Z,30.0600,-84.2910,0.476,1111122 
COMPS,ioos:station:USF.COMPS:SHP:1,2016-04-01T15:00:00Z,30.0600,-84.2910,0.477,1111122 
COMPS,ioos:station:USF.COMPS:SHP:1,2016-04-01T15:06:00Z,30.0600,-84.2910,0.481,1111122 
COMPS,ioos:station:USF.COMPS:SHP:1,2016-04-01T15:12:00Z,30.0600,-84.2910,0.478,1111122 
COMPS,ioos:station:USF.COMPS:SHP:1,2016-04-01T15:18:00Z,30.0600,-84.2910,0.478,1111122 
COMPS,ioos:station:USF.COMPS:SHP:1,2016-04-01T15:24:00Z,30.0600,-84.2910,0.48,1111122 
COMPS,ioos:station:USF.COMPS:SHP:1,2016-04-01T15:30:00Z,30.0600,-84.2910,0.48,1111122 
COMPS,ioos:station:USF.COMPS:SHP:1,2016-04-01T15:36:00Z,30.0600,-84.2910,0.484,1111122 
COMPS,ioos:station:USF.COMPS:SHP:1,2016-04-01T15:42:00Z,30.0600,-84.2910,0.486,1111122 
COMPS,ioos:station:USF.COMPS:SHP:1,2016-04-01T15:48:00Z,30.0600,-84.2910,0.471,1111122 
COMPS,ioos:station:USF.COMPS:SHP:1,2016-04-01T15:54:00Z,30.0600,-84.2910,0.47,1111122 
COMPS,ioos:station:USF.COMPS:SHP:1,2016-04-01T16:00:00Z,30.0600,-84.2910,0.473,1111122 
COMPS,ioos:station:USF.COMPS:SHP:1,2016-04-01T16:06:00Z,30.0600,-84.2910,0.472,1111122 
COMPS,ioos:station:USF.COMPS:SHP:1,2016-04-01T16:12:00Z,30.0600,-84.2910,0.461,1111122 
COMPS,ioos:station:USF.COMPS:SHP:1,2016-04-01T16:18:00Z,30.0600,-84.2910,0.452,1111122 
COMPS,ioos:station:USF.COMPS:SHP:1,2016-04-01T16:24:00Z,30.0600,-84.2910,0.449,1111122 
COMPS,ioos:station:USF.COMPS:SHP:1,2016-04-01T16:30:00Z,30.0600,-84.2910,0.439,1111122 
COMPS,ioos:station:USF.COMPS:SHP:1,2016-04-01T16:36:00Z,30.0600,-84.2910,0.429,1111122 
COMPS,ioos:station:USF.COMPS:SHP:1,2016-04-01T16:42:00Z,30.0600,-84.2910,0.429,1111122 
COMPS,ioos:station:USF.COMPS:SHP:1,2016-04-01T16:48:00Z,30.0600,-84.2910,0.43,1111122 
COMPS,ioos:station:USF.COMPS:SHP:1,2016-04-01T16:54:00Z,30.0600,-84.2910,0.42,1111122 
COMPS,ioos:station:USF.COMPS:SHP:1,2016-04-01T17:00:00Z,30.0600,-84.2910,0.409,1111122 
COMPS,ioos:station:USF.COMPS:SHP:1,2016-04-01T17:06:00Z,30.0600,-84.2910,0.401,1111122 
COMPS,ioos:station:USF.COMPS:SHP:1,2016-04-01T17:12:00Z,30.0600,-84.2910,0.388,1111122 
COMPS,ioos:station:USF.COMPS:SHP:1,2016-04-01T17:18:00Z,30.0600,-84.2910,0.385,1111122 
COMPS,ioos:station:USF.COMPS:SHP:1,2016-04-01T17:24:00Z,30.0600,-84.2910,0.386,1111122 
COMPS,ioos:station:USF.COMPS:SHP:1,2016-04-01T17:30:00Z,30.0600,-84.2910,0.383,1111122 
COMPS,ioos:station:USF.COMPS:SHP:1,2016-04-01T17:36:00Z,30.0600,-84.2910,0.364,1111122 
COMPS,ioos:station:USF.COMPS:SHP:1,2016-04-01T17:42:00Z,30.0600,-84.2910,0.345,1111122 
COMPS,ioos:station:USF.COMPS:SHP:1,2016-04-01T17:48:00Z,30.0600,-84.2910,0.32,1111122 
COMPS,ioos:station:USF.COMPS:SHP:1,2016-04-01T17:54:00Z,30.0600,-84.2910,0.314,1111122 
COMPS,ioos:station:USF.COMPS:SHP:1,2016-04-01T18:00:00Z,30.0600,-84.2910,0.318,1111122 
COMPS,ioos:station:USF.COMPS:SHP:1,2016-04-01T18:06:00Z,30.0600,-84.2910,0.318,1111122 
COMPS,ioos:station:USF.COMPS:SHP:1,2016-04-01T18:12:00Z,30.0600,-84.2910,0.315,1111122 
COMPS,ioos:station:USF.COMPS:SHP:1,2016-04-01T18:18:00Z,30.0600,-84.2910,0.304,1111122 
COMPS,ioos:station:USF.COMPS:SHP:1,2016-04-01T18:24:00Z,30.0600,-84.2910,0.282,1111122 
COMPS,ioos:station:USF.COMPS:SHP:1,2016-04-01T18:30:00Z,30.0600,-84.2910,0.277,1111122 
COMPS,ioos:station:USF.COMPS:SHP:1,2016-04-01T18:36:00Z,30.0600,-84.2910,0.279,1111122 
COMPS,ioos:station:USF.COMPS:SHP:1,2016-04-01T18:42:00Z,30.0600,-84.2910,0.272,1111122 
COMPS,ioos:station:USF.COMPS:SHP:1,2016-04-01T18:48:00Z,30.0600,-84.2910,0.245,1111122 
COMPS,ioos:station:USF.COMPS:SHP:1,2016-04-01T18:54:00Z,30.0600,-84.2910,0.226,1111122 
COMPS,ioos:station:USF.COMPS:SHP:1,2016-04-01T19:00:00Z,30.0600,-84.2910,0.211,1111122 
COMPS,ioos:station:USF.COMPS:SHP:1,2016-04-01T19:06:00Z,30.0600,-84.2910,0.21,1111122 
COMPS,ioos:station:USF.COMPS:SHP:1,2016-04-01T19:12:00Z,30.0600,-84.2910,0.217,1111122 
COMPS,ioos:station:USF.COMPS:SHP:1,2016-04-01T19:18:00Z,30.0600,-84.2910,0.225,1111122 
COMPS,ioos:station:USF.COMPS:SHP:1,2016-04-01T19:24:00Z,30.0600,-84.2910,0.217,1111122 
COMPS,ioos:station:USF.COMPS:SHP:1,2016-04-01T19:30:00Z,30.0600,-84.2910,0.204,1111122 
COMPS,ioos:station:USF.COMPS:SHP:1,2016-04-01T19:36:00Z,30.0600,-84.2910,0.2,1111122 
COMPS,ioos:station:USF.COMPS:SHP:1,2016-04-01T19:42:00Z,30.0600,-84.2910,0.2,1111122 
COMPS,ioos:station:USF.COMPS:SHP:1,2016-04-01T19:48:00Z,30.0600,-84.2910,0.203,1111122 
COMPS,ioos:station:USF.COMPS:SHP:1,2016-04-01T19:54:00Z,30.0600,-84.2910,0.211,1111122 
COMPS,ioos:station:USF.COMPS:SHP:1,2016-04-01T20:00:00Z,30.0600,-84.2910,0.216,1111122 
COMPS,ioos:station:USF.COMPS:SHP:1,2016-04-01T20:06:00Z,30.0600,-84.2910,0.202,1111122 
COMPS,ioos:station:USF.COMPS:SHP:1,2016-04-01T20:12:00Z,30.0600,-84.2910,0.197,1111122 
COMPS,ioos:station:USF.COMPS:SHP:1,2016-04-01T20:18:00Z,30.0600,-84.2910,0.202,1111122 
COMPS,ioos:station:USF.COMPS:SHP:1,2016-04-01T20:24:00Z,30.0600,-84.2910,0.212,1111122 
COMPS,ioos:station:USF.COMPS:SHP:1,2016-04-01T20:30:00Z,30.0600,-84.2910,0.221,1111122 
COMPS,ioos:station:USF.COMPS:SHP:1,2016-04-01T20:36:00Z,30.0600,-84.2910,0.208,1111122 
COMPS,ioos:station:USF.COMPS:SHP:1,2016-04-01T20:42:00Z,30.0600,-84.2910,0.2,1111122 
COMPS,ioos:station:USF.COMPS:SHP:1,2016-04-01T20:48:00Z,30.0600,-84.2910,0.202,1111122 
COMPS,ioos:station:USF.COMPS:SHP:1,2016-04-01T20:54:00Z,30.0600,-84.2910,0.209,1111122 
COMPS,ioos:station:USF.COMPS:SHP:1,2016-04-01T21:00:00Z,30.0600,-84.2910,0.209,1111122 
COMPS,ioos:station:USF.COMPS:SHP:1,2016-04-01T21:06:00Z,30.0600,-84.2910,0.208,1111122 
COMPS,ioos:station:USF.COMPS:SHP:1,2016-04-01T21:12:00Z,30.0600,-84.2910,0.211,1111122 
COMPS,ioos:station:USF.COMPS:SHP:1,2016-04-01T21:18:00Z,30.0600,-84.2910,0.213,1111122 
COMPS,ioos:station:USF.COMPS:SHP:1,2016-04-01T21:24:00Z,30.0600,-84.2910,0.214,1111122 
COMPS,ioos:station:USF.COMPS:SHP:1,2016-04-01T21:30:00Z,30.0600,-84.2910,0.217,1111122 
COMPS,ioos:station:USF.COMPS:SHP:1,2016-04-01T21:36:00Z,30.0600,-84.2910,0.223,1111122 
COMPS,ioos:station:USF.COMPS:SHP:1,2016-04-01T21:42:00Z,30.0600,-84.2910,0.232,1111122 
COMPS,ioos:station:USF.COMPS:SHP:1,2016-04-01T21:48:00Z,30.0600,-84.2910,0.238,1111122 
COMPS,ioos:station:USF.COMPS:SHP:1,2016-04-01T21:54:00Z,30.0600,-84.2910,0.249,1111122 
COMPS,ioos:station:USF.COMPS:SHP:1,2016-04-01T22:00:00Z,30.0600,-84.2910,0.262,1111122 
COMPS,ioos:station:USF.COMPS:SHP:1,2016-04-01T22:06:00Z,30.0600,-84.2910,0.271,1111122 
COMPS,ioos:station:USF.COMPS:SHP:1,2016-04-01T22:12:00Z,30.0600,-84.2910,0.278,1111122 
COMPS,ioos:station:USF.COMPS:SHP:1,2016-04-01T22:18:00Z,30.0600,-84.2910,0.284,1111122 
COMPS,ioos:station:USF.COMPS:SHP:1,2016-04-01T22:24:00Z,30.0600,-84.2910,0.287,1111122 
COMPS,ioos:station:USF.COMPS:SHP:1,2016-04-01T22:30:00Z,30.0600,-84.2910,0.289,1111122 
COMPS,ioos:station:USF.COMPS:SHP:1,2016-04-01T22:36:00Z,30.0600,-84.2910,0.296,1111122 
COMPS,ioos:station:USF.COMPS:SHP:1,2016-04-01T22:42:00Z,30.0600,-84.2910,0.305,1111122 
COMPS,ioos:station:USF.COMPS:SHP:1,2016-04-01T22:48:00Z,30.0600,-84.2910,0.305,1111122 
COMPS,ioos:station:USF.COMPS:SHP:1,2016-04-01T22:54:00Z,30.0600,-84.2910,0.3,1111122 
COMPS,ioos:station:USF.COMPS:SHP:1,2016-04-01T23:00:00Z,30.0600,-84.2910,0.299,1111122 
COMPS,ioos:station:USF.COMPS:SHP:1,2016-04-01T23:06:00Z,30.0600,-84.2910,0.308,1111122 
COMPS,ioos:station:USF.COMPS:SHP:1,2016-04-01T23:12:00Z,30.0600,-84.2910,0.317,1111122 
COMPS,ioos:station:USF.COMPS:SHP:1,2016-04-01T23:18:00Z,30.0600,-84.2910,0.321,1111122 
COMPS,ioos:station:USF.COMPS:SHP:1,2016-04-01T23:24:00Z,30.0600,-84.2910,0.326,1111122 
COMPS,ioos:station:USF.COMPS:SHP:1,2016-04-01T23:30:00Z,30.0600,-84.2910,0.326,1111122 
COMPS,ioos:station:USF.COMPS:SHP:1,2016-04-01T23:36:00Z,30.0600,-84.2910,0.327,1111122 
COMPS,ioos:station:USF.COMPS:SHP:1,2016-04-01T23:42:00Z,30.0600,-84.2910,0.33,1111122 
COMPS,ioos:station:USF.COMPS:SHP:1,2016-04-01T23:48:00Z,30.0600,-84.2910,0.333,1111122 
COMPS,ioos:station:USF.COMPS:SHP:1,2016-04-01T23:54:00Z,30.0600,-84.2910,0.342,1111122 
COMPS,ioos:station:USF.COMPS:SHP:1,2016-04-02T00:00:00Z,30.0600,-84.2910,0.359,1111122 
COMPS,ioos:station:USF.COMPS:SHP:1,2016-04-02T00:06:00Z,30.0600,-84.2910,0.374,1111122 
COMPS,ioos:station:USF.COMPS:SHP:1,2016-04-02T00:12:00Z,30.0600,-84.2910,0.385,1111122 
COMPS,ioos:station:USF.COMPS:SHP:1,2016-04-02T00:18:00Z,30.0600,-84.2910,0.384,1111122 
COMPS,ioos:station:USF.COMPS:SHP:1,2016-04-02T00:24:00Z,30.0600,-84.2910,0.385,1111122 
COMPS,ioos:station:USF.COMPS:SHP:1,2016-04-02T00:30:00Z,30.0600,-84.2910,0.396,1111122 
COMPS,ioos:station:USF.COMPS:SHP:1,2016-04-02T00:36:00Z,30.0600,-84.2910,0.415,1111122 
COMPS,ioos:station:USF.COMPS:SHP:1,2016-04-02T00:42:00Z,30.0600,-84.2910,0.425,1111122 
COMPS,ioos:station:USF.COMPS:SHP:1,2016-04-02T00:48:00Z,30.0600,-84.2910,0.432,1111122 
COMPS,ioos:station:USF.COMPS:SHP:1,2016-04-02T00:54:00Z,30.0600,-84.2910,0.444,1111122 
COMPS,ioos:station:USF.COMPS:SHP:1,2016-04-02T01:00:00Z,30.0600,-84.2910,0.452,1111122 
COMPS,ioos:station:USF.COMPS:SHP:1,2016-04-02T01:06:00Z,30.0600,-84.2910,0.461,1111122 
COMPS,ioos:station:USF.COMPS:SHP:1,2016-04-02T01:12:00Z,30.0600,-84.2910,0.47,1111122 
COMPS,ioos:station:USF.COMPS:SHP:1,2016-04-02T01:18:00Z,30.0600,-84.2910,0.479,1111122 
COMPS,ioos:station:USF.COMPS:SHP:1,2016-04-02T01:24:00Z,30.0600,-84.2910,0.499,1111122 
COMPS,ioos:station:USF.COMPS:SHP:1,2016-04-02T01:30:00Z,30.0600,-84.2910,0.514,1111122 
COMPS,ioos:station:USF.COMPS:SHP:1,2016-04-02T01:36:00Z,30.0600,-84.2910,0.51,1111122 
COMPS,ioos:station:USF.COMPS:SHP:1,2016-04-02T01:42:00Z,30.0600,-84.2910,0.513,1111122 
COMPS,ioos:station:USF.COMPS:SHP:1,2016-04-02T01:48:00Z,30.0600,-84.2910,0.513,1111122 
COMPS,ioos:station:USF.COMPS:SHP:1,2016-04-02T01:54:00Z,30.0600,-84.2910,0.502,1111122 
COMPS,ioos:station:USF.COMPS:SHP:1,2016-04-02T02:00:00Z,30.0600,-84.2910,0.495,1111122 
COMPS,ioos:station:USF.COMPS:SHP:1,2016-04-02T02:06:00Z,30.0600,-84.2910,0.499,1111122 
COMPS,ioos:station:USF.COMPS:SHP:1,2016-04-02T02:12:00Z,30.0600,-84.2910,0.51,1111122 
COMPS,ioos:station:USF.COMPS:SHP:1,2016-04-02T02:18:00Z,30.0600,-84.2910,0.526,1111122 
COMPS,ioos:station:USF.COMPS:SHP:1,2016-04-02T02:24:00Z,30.0600,-84.2910,0.532,1111122 
COMPS,ioos:station:USF.COMPS:SHP:1,2016-04-02T02:30:00Z,30.0600,-84.2910,0.532,1111122 
COMPS,ioos:station:USF.COMPS:SHP:1,2016-04-02T02:36:00Z,30.0600,-84.2910,0.525,1111122 
COMPS,ioos:station:USF.COMPS:SHP:1,2016-04-02T02:42:00Z,30.0600,-84.2910,0.516,1111122 
COMPS,ioos:station:USF.COMPS:SHP:1,2016-04-02T02:48:00Z,30.0600,-84.2910,0.52,1111122 
COMPS,ioos:station:USF.COMPS:SHP:1,2016-04-02T02:54:00Z,30.0600,-84.2910,0.533,1111122 
COMPS,ioos:station:USF.COMPS:SHP:1,2016-04-02T03:00:00Z,30.0600,-84.2910,0.53,1111122 